Cosmos 1206 Rocket - Orbit

View from above orbital plane
View from above orbital plane
View from above satellite
View from above satellite

Ground track
Ground track

The orbit data is extracted from the following two-line orbital elements,

1 11933U 80069B   13139.17036030  .00030924  00000-0  46191-3 0  9720
2 11933 081.2094 117.1829 0011629 265.9479 094.0442 15.54796031801534
Epoch (UTC): 19 May 2013 04:05:19
Eccentricity: 0.0011629
inclination: 81.2094°
perigee height: 395 km
apogee height: 410 km
right ascension of ascending node: 117.1829°
argument of perigee: 265.9479°
revolutions per day: 15.54796031
mean anomaly at epoch: 94.0442°
orbit number at epoch: 80153

The dashed part of the orbit path shows where the satellite is in the earth's shadow,  

Developed and maintained by Chris Peat, Heavens-Above GmbH. Please read the updated FAQ before sending e-mail. Imprint. DLR